Hourly Data Report for September 10, 2017

All times are specified in Local Standard Time (LST). Add 1 hour to adjust for Daylight Saving Time where and when it is observed.

ARCTIC BAY CS
NUNAVUT

72°59'34.000" N
85°00'44.000" W
10.00 m
2400404
71592
XAT

Download Data

Hourly Data (September 2017)
Hourly Data Report for September 10, 2017
Temp Definition
°C
Dew Point Temp Definition
°C
Rel Hum Definition
%
Wind Dir Definition
10's deg

Wind Spd Definition
km/h
Visibility Definition
km
Stn Press Definition
kPa
Hmdx Definition


Wind Chill Definition


Weather Definition


TIME
00:00 -1.9 -5.8 75 31 35   99.88   -9 LegendNANA
01:00 -2.2 -5.7 77 30 43   99.93   -11 LegendNANA
02:00 -2.3 -5.9 76 31 40   99.99   -10 LegendNANA
03:00 -1.9 -5.5 76 31 38   100.05   -10 LegendNANA
04:00 -1.6 -4.9 78 30 30   100.12   -9 LegendNANA
05:00 -1.5 -5.2 76 30 32   100.18   -9 LegendNANA
06:00 -1.2 -4.4 78 31 23   100.18   -7 LegendNANA
07:00 -0.7 -4.5 75 31 28   100.19   -7 LegendNANA
08:00 -0.1 -2.8 82 29 28   100.19   -6 LegendNANA
09:00 0.3 -2.7 80 29 33   100.18     LegendNANA
10:00 0.6 -2.6 79 28 31   100.17     LegendNANA
11:00 0.6 -2.3 80 28 32   100.18     LegendNANA
12:00 0.4 -2.7 79 27 29   100.21     LegendNANA
13:00 0.7 -2.4 80 27 33   100.24     LegendNANA
14:00 0.7 -2.3 80 28 35   100.26     LegendNANA
15:00 0.8 -2.4 79 27 33   100.29     LegendNANA
16:00 0.7 -2.3 80 28 39   100.30     LegendNANA
17:00 0.8 -2.7 78 28 30   100.33     LegendNANA
18:00 0.7 -2.7 78 27 30   100.29     LegendNANA
19:00 0.6 -3.1 76 27 20   100.30     LegendNANA
20:00 0.6 -2.3 81 29 10   100.29     LegendNANA
21:00 0.6 -2.0 83 25 12   100.25     LegendNANA
22:00 0.6 -2.0 83 31 9   100.20     LegendNANA
23:00 0.6 -2.8 78 19 3   100.18     LegendNANA

Notes on Data Quality.

Legend

  • E = Estimated
  • M = Missing
  • NA = Not Available
  • ‡ = Partner data that is not subject to review by the National Climate Archives
Date modified: